Regional Weather Roundup
Issued by NWS

Home | Current Version | Previous Version | Graphics & Text | Print | Product List | Glossary On
Versions: 1 2 3 4 5 6 7 8 9 10 11 12 13 14 15 16 17 18 19 20 21 22 23 24 25 26 27 28 29 30 31 32 33 34 35 36 37 38 39 40 41 42 43 44 45 46 47 48 49 50
000
ASUS43 KIND 201109
RWRIN

WEATHER ROUNDUP FOR INDIANA
NATIONAL WEATHER SERVICE INDIANAPOLIS IN
600 AM EST SAT DEC 20 2014

NOTE: "FAIR" INDICATES FEW OR NO CLOUDS BELOW 12,000 FEET WITH NO
SIGNIFICANT WEATHER AND/OR OBSTRUCTIONS TO VISIBILITY.

* - STATION DOES NOT REPORT WEATHER SUCH AS PRECIPITATION OR FOG.

+ - STATION NOT QUALITY CONTROLLED BY THE NATIONAL WEATHER SERVICE.
    USE DATA WITH CAUTION...ESPECIALLY DEWPOINT AND RELATIVE
    HUMIDITY OBSERVATIONS.

INZ001>003-010>013-019-020-201200-
NORTHWEST INDIANA

CITY           SKY/WX    TMP DP  RH WIND       PRES   REMARKS
GARY /AIRPORT/ CLOUDY    32  23  69 CALM      30.29S
KNOX *+        CLOUDY    30  24  80 CALM      30.26S
LA PORTE +     CLOUDY    32  26  78 CALM      30.27S
MICHIGAN CITY+ CLOUDY    32  21  64 CALM      30.28S
MONTICELLO +   CLOUDY    29  28  96 CALM      30.27R
RENSSELAER +   CLOUDY    30  30 100 CALM      30.28R FOG
VALPARAISO     CLOUDY    29  24  82 W3        30.28R

$$

LMZ046-743>745-201200-
SOUTHERN LAKE MICHIGAN

STATION/POSITION TIME  TEMP WIND        PRES
                       AIR  DIR/SP/G
                 (UTC) (F)  (DEG/KT/KT) (MB)

$$

INZ004-005-014>016-021>024-201200-
NORTH CENTRAL INDIANA

CITY           SKY/WX    TMP DP  RH WIND       PRES   REMARKS
GOSHEN         MOCLDY    25  22  88 CALM      30.26S FOG
LOGANSPORT +   CLOUDY    30  28  93 CALM      30.28R FOG
PERU/GRISSOM   CLOUDY    28  28 100 CALM      30.25F
ROCHESTER +    CLOUDY    32  30  93 CALM      30.26F FOG
SOUTH BEND     CLOUDY    31  23  72 CALM      30.27S
WARSAW +       CLOUDY    28  28 100 CALM      30.26S FOG

$$

INZ006>009-017-018-025>027-201200-
NORTHEAST INDIANA

CITY           SKY/WX    TMP DP  RH WIND       PRES   REMARKS
ANGOLA *+      MOCLDY    21  21 100 CALM      30.25S
AUBURN +       CLOUDY    23  21  93 CALM      30.27S FOG
FORT WAYNE     CLOUDY    26  23  88 CALM      30.27S
HUNTINGTON +   CLOUDY    28  26  95 CALM      30.27R FOG

$$

INZ028-029-035-036-043>045-051>053-201200-
WEST CENTRAL INDIANA

CITY           SKY/WX    TMP DP  RH WIND       PRES   REMARKS
GREENCASTLE +  PTCLDY    27  23  86 CALM      30.27S FOG
LAFAYETTE      CLOUDY    28  27  96 CALM      30.28R FOG
TERRE HAUTE    CLOUDY    29  27  92 CALM      30.29R

$$

INZ030>032-037>040-046>048-054>057-064-065-201200-
CENTRAL INDIANA

CITY           SKY/WX    TMP DP  RH WIND       PRES   REMARKS
CP ATTERBURY + LGT SNOW  30  28  93 MISG      30.28S
FRANKFORT +    MOCLDY    29  29 100 CALM      30.28R FOG
INDIANAPOLIS   CLOUDY    28  23  81 CALM      30.26R
-EAGLE CREEK   CLOUDY    29  24  82 CALM      30.26S
KOKOMO *+      CLOUDY    28  27  93 CALM      30.26F
MARION +       CLOUDY    28  28  99 CALM      30.27S FOG
MT COMFORT *+  CLOUDY    28  28 100 CALM      30.27R
SHELBYVILLE    CLOUDY    31  26  82 CALM      30.26S
ZIONSVILLE +   CLOUDY    29  26  89 CALM      30.26S FOG

$$

INZ033-034-041-042-049-050-058-059-201200-
EAST CENTRAL INDIANA

CITY           SKY/WX    TMP DP  RH WIND       PRES   REMARKS
MUNCIE         CLOUDY    28  26  92 CALM      30.26R FOG

$$

INZ060-061-067>069-081>083-085>088-201200-
SOUTHWEST INDIANA

CITY           SKY/WX    TMP DP  RH WIND       PRES   REMARKS
EVANSVILLE     CLOUDY    32  25  75 CALM      30.28S
HUNTINGBURG *+ MOCLDY    28  23  80 NE7       30.27F WCI  21
WASHINGTON +   CLOUDY    29  26  88 NE3       30.28S

$$

INZ062-063-066-070>080-084-089>092-201200-
SOUTH CENTRAL AND SOUTHEAST INDIANA

CITY           SKY/WX    TMP DP  RH WIND       PRES   REMARKS
BLOOMINGTON    LGT SNOW  28  26  92 CALM      30.26S FOG
NORTH VERNON + LGT SNOW  28  28 100 CALM      30.28

$$




USA.gov is the U.S. government's official web portal to all federal, state and local government web resources and services.